Weather in Zaplyvino

Russia / Altai Krai     53°56′16″N   84°34′26″E
temp.,
°C
wind,
m/s
gust,
m/s
humid.,
%
clouds,
%
prec.,
mm/h
press.,
hPa
HPBL,
m
7 may, fri
fri701:00+15sse2265100 0.0 100324
04:00+14ssw356994 0.0 100261
07:00+14wnw41176100 0.0 1005394
10:00+16nw5871100 0.0 1007647
13:00+18wnw684796 0.0 10091543
16:00+17wnw7933100 0.0 10121895
19:00+16wnw5839100 0.0 10141303
22:00+11w3553100 0.0 101781
8 may, sat
sat801:00+9w37611 0.0 1018120
04:00+7w34650 0.0 101959
07:00+7wnw25660 0.0 1021140
10:00+14w34380 0.0 1020921
13:00+17w57365 0.0 10191921
16:00+19wnw693536 0.0 10172570
19:00+19w474265 0.0 1017892
22:00+14wsw495571 0.0 1017175
9 may, sun
sun901:00+14wsw41155100 0.0 1017304
04:00+13w3559100 0.0 1017123
07:00+11n367637 0.0 1018267
10:00+13n35495 0.0 1018727
13:00+16nnw45385 0.0 10181373
16:00+17nnw45355 0.0 10171620
19:00+15nne44374 0.0 10181381
22:00+9ne385312 0.0 1019150
10 may, mon
mon1001:00+6ne4116211 0.0 1019254
04:00+5ne410705 0.0 1018270
07:00+5ne511736 0.0 1017310
10:00+11ene6844100 0.0 1015880
13:00+15ene5735100 0.0 10131433
16:00+16ene5634100 0.0 10111711
19:00+14ne6944100 0.0 1010890
22:00+11ne5114899 0.0 1010355
11 may, tue
tue1101:00+9ne511545 0.0 1009294
04:00+7ne5116650 0.0 1009314
07:00+7nne497191 0.0 1009336
10:00+12nne344949 0.0 1009713
13:00+17n223716 0.0 10091485
16:00+19n223322 0.0 10092142
19:00+18nne454097 0.0 1010765
22:00+13se2465100 0.0 1011113